STARLINK-1265 (45406 NORAD) Tracking and Keplerian Element Data

This shows tracking and keplerian element data for the satellite.

Feedback or suggestion? Click here.




ElementValue
Catalog45406
NameSTARLINK-1265
Epoch Orbit1881
Epoch Day196.91667824
Epoch Year2020
RAAN41.2444
Inclination53.0004
Eccentricity0.0001422
Argument of Perigee86.2195
Mean Anonmoly65.2677
Mean Motion15.05589135
Decay Rate8.227E-05
L11 45406U 20019AY 20196.91667824 .00008227 00000-0 58298-3 0 9996
L22 45406 53.0004 41.2444 0001422 86.2195 65.2677 15.05589135 18815

Live tracking and technical data element details for STARLINK-1265 (NORAD 45406). STARLINK-1265 can be tracked NOW for your location showing map with azimuth and elevation plus other details from your city location.

Track the satellite on the map from your city or location and see movement details for azimuth, elevation, latitude, longitude, range, height, and movement on the map or in text.







IsCatalogInMostPopularTable: catalog: 45406, numindb: 33
Update: records affected: 1



GetName: 45406 STARLINK-1265

Hit Count: updated at: Thu, 16 Jul 2020 02:23:14 GMT